Terug naar catalogus

COSMOS 1275 DEB

ActiefPO
NORAD 39935·DEBRIS·🇷🇺 Russia

Gelanceerd Jun 4, 1981 vanaf Plesetsk Cosmodrome

Loading…

Volgende Passages (komende 24 uur)

TLE

VerouderendSource: Space-Track

Epoch: Sep 9, 2026, 19:11 UTC

1 39935U 81053MV  26252.79952271  .00000602  00000-0  41345-3 0  9993
2 39935  82.8212  92.9525 0034040 253.9387 120.4421 13.97726387623901

Volg COSMOS 1275 DEB in realtime met AllMySat

Download on the App Store